Wind_Speed
46 47 46 46 46 46 46 46 45 45 45 45 45 45 45 44 44 44 44 44 44 44 45 45 45 45 45 45 45 45 45 45 45 45 44 44 45 45 46 46 47 50 51 51 49 48 48 47 46 47 49 50 50 51 50 49 48 46 46 46 45 44 45
45 46 47 47 47 47 47 47 47 47 46 46 47 47 47 47 46 46 45 45 45 44 45 45 45 45 45 45 45 45 45 45 45 45 45 45 45 46 46 46 48 50 52 52 51 50 50 49 49 49 49 50 51 52 52 52 52 50 49 48 48 47 45
44 45 46 47 48 48 48 48 48 48 48 47 48 48 48 48 48 48 48 47 47 46 46 46 47 47 47 46 46 46 46 46 47 47 47 47 47 48 48 49 50 51 53 54 53 53 52 52 52 52 51 51 52 53 54 55 55 54 53 52 51 51 50
45 44 44 46 47 48 48 48 48 48 47 47 48 48 49 49 49 49 49 49 49 49 49 49 49 49 49 49 49 49 49 49 50 50 50 50 50 51 51 52 53 54 54 55 55 54 54 54 55 54 53 53 54 55 56 57 57 57 57 55 54 54 54
44 45 44 44 45 46 48 48 48 48 47 48 48 48 48 48 48 49 49 49 49 50 50 51 51 52 53 53 53 53 53 54 54 54 54 54 54 54 55 55 56 56 56 57 58 57 57 58 58 58 57 57 57 58 58 59 60 61 60 59 58 56 56
43 44 44 44 43 44 45 46 47 48 48 48 47 47 46 47 47 47 48 49 50 50 51 51 52 53 53 54 54 55 55 56 57 57 58 58 58 58 59 59 60 60 60 61 62 62 62 62 62 63 62 62 62 61 61 61 62 64 64 64 62 60 58
43 43 43 43 43 43 43 44 45 47 47 47 47 46 46 47 47 47 47 47 48 48 49 50 51 52 52 52 53 53 54 54 55 55 56 56 57 57 58 59 59 59 60 61 62 62 63 63 63 63 63 63 62 62 62 62 63 65 66 66 66 64 62
42 42 42 42 42 42 42 42 43 44 45 46 46 46 46 46 46 47 47 46 46 46 47 48 48 49 50 50 50 51 51 52 52 52 53 53 53 54 55 55 56 56 57 57 58 59 60 60 60 61 61 61 61 61 62 61 62 63 65 66 67 67 65
41 41 41 41 40 40 40 40 40 41 42 43 45 46 46 46 46 46 46 47 47 47 47 46 47 47 47 48 48 48 49 49 50 51 51 52 52 53 53 54 54 55 55 56 57 58 58 58 59 59 60 60 60 61 60 59 59 61 63 64 66 68 68
39 40 40 40 39 38 38 38 38 38 39 40 41 43 44 45 46 46 47 47 47 47 46 45 45 45 45 46 47 47 47 48 49 50 50 51 51 52 53 53 54 54 55 55 56 57 57 58 59 59 59 60 60 60 60 60 60 61 61 62 65 67 68
39 39 39 38 37 37 36 36 36 36 36 37 38 40 41 43 44 45 46 46 46 44 43 43 43 44 45 46 46 46 47 48 48 49 50 50 51 51 52 53 53 54 54 55 56 57 57 58 58 58 58 59 60 60 60 60 61 61 61 62 64 66 66
39 38 37 36 36 35 34 34 34 34 34 34 35 37 38 40 41 42 42 42 41 41 41 42 43 44 45 45 45 46 46 47 48 48 49 49 50 50 51 52 53 53 54 55 56 56 57 57 58 57 57 58 59 59 60 60 61 62 62 63 64 65 66
38 38 37 35 35 34 33 32 32 32 32 32 33 34 36 36 37 37 37 37 37 39 40 42 42 42 43 44 44 45 45 46 47 48 49 49 50 50 50 51 52 52 53 54 54 55 56 56 56 57 57 57 58 58 59 60 61 61 62 63 64 65 65
36 36 36 35 34 33 32 31 31 31 31 31 31 32 34 33 32 32 33 33 35 37 38 39 39 40 41 41 42 43 44 45 46 47 48 49 49 50 50 50 51 51 51 52 53 55 55 55 55 57 57 57 58 59 59 60 60 60 61 62 63 63 63
34 34 33 33 33 32 31 30 29 29 29 29 29 31 30 29 29 30 30 30 31 32 34 34 35 36 37 38 39 40 41 42 44 45 46 47 47 48 48 48 48 49 50 50 51 52 53 54 54 55 56 57 57 58 58 58 59 59 60 61 62 62 62
31 31 31 31 31 30 29 28 28 27 27 27 28 29 27 26 28 29 28 28 28 28 30 30 31 32 32 33 35 37 38 40 41 42 43 44 44 44 45 45 45 46 46 47 48 49 50 51 51 52 53 53 54 55 56 57 59 60 60 61 62 63 63
29 29 29 28 28 28 27 27 26 26 26 26 26 26 25 24 26 27 27 26 26 26 27 28 29 29 30 31 33 34 35 37 38 39 40 41 42 42 42 42 42 43 45 45 46 47 47 48 49 50 51 51 52 53 53 55 58 59 59 60 61 63 63
27 27 27 26 26 25 25 25 25 25 24 24 25 25 24 23 24 25 25 24 24 25 25 26 27 29 29 30 31 32 34 35 37 38 39 40 41 41 40 41 42 44 45 45 45 45 46 47 47 48 50 50 50 51 51 53 55 56 56 57 59 60 60
26 25 24 23 23 23 23 23 24 23 23 23 23 25 24 23 23 22 22 22 23 24 25 26 27 29 29 30 30 31 33 35 37 39 40 41 42 42 43 44 45 46 46 45 45 45 47 48 48 49 49 49 50 50 50 51 53 54 54 56 57 57 57
23 22 21 21 21 21 21 22 22 22 22 21 23 25 25 23 20 20 20 22 24 25 27 28 28 28 29 29 30 32 33 34 36 38 39 40 42 44 45 45 45 45 46 47 47 47 47 48 48 49 49 50 50 50 50 51 52 53 54 55 57 57 57
20 20 19 19 19 20 20 20 20 20 20 21 22 25 25 22 19 19 21 23 25 26 27 28 27 28 28 29 30 32 33 34 36 37 38 40 42 44 45 45 45 46 47 48 48 48 48 48 48 49 50 50 51 52 53 53 54 54 54 55 57 58 58
18 17 17 17 18 19 19 19 19 19 20 19 21 24 25 21 18 19 22 25 26 26 27 27 28 28 29 30 32 33 34 35 36 37 38 40 42 43 44 46 47 47 48 48 49 50 50 50 50 50 51 51 52 53 53 54 54 54 54 54 56 57 59
16 15 15 15 17 18 17 18 19 19 18 18 19 23 24 21 18 20 23 25 26 26 27 28 29 29 30 31 32 32 33 34 35 36 37 38 39 41 42 44 45 46 47 48 49 50 50 51 51 51 52 52 53 54 54 55 55 54 54 54 55 56 58
14 14 14 15 16 17 16 17 18 17 16 17 18 21 22 21 20 22 24 25 26 27 27 28 28 29 29 29 30 30 31 32 33 34 35 36 37 39 40 42 43 45 46 47 48 49 50 51 51 52 52 53 53 54 55 55 56 56 56 56 56 57 57
13 13 14 15 16 16 15 16 17 16 16 16 17 19 21 21 22 24 25 25 25 26 26 26 26 26 27 27 28 29 29 30 31 32 33 35 36 37 38 40 41 43 44 46 48 49 51 51 52 53 53 53 54 54 55 56 56 57 57 57 58 58 58
12 12 13 14 14 14 15 16 16 16 15 15 16 18 19 21 22 23 23 22 23 23 23 23 23 24 24 25 25 26 26 26 27 28 28 29 30 32 33 34 36 38 40 42 44 46 48 50 51 53 54 54 55 55 55 56 57 57 57 57 57 58 58
11 11 12 13 13 14 15 16 16 16 15 14 15 16 17 19 20 20 19 19 20 20 20 21 21 21 21 20 20 20 19 20 20 21 22 23 24 26 27 29 30 32 34 36 37 39 41 44 46 48 50 52 53 54 54 55 56 57 57 57 57 58 58
10 11 12 13 13 14 15 16 16 16 15 13 14 14 14 16 17 17 16 17 17 17 17 17 16 15 14 14 14 14 15 16 17 18 19 20 21 23 24 26 27 29 30 32 33 35 37 38 40 42 44 46 48 50 51 52 54 55 56 57 57 57 58
10 10 12 13 12 13 15 16 15 16 15 14 12 11 11 12 14 14 14 14 13 12 11 10 9 9 10 11 12 13 14 16 17 18 20 21 22 23 24 26 27 28 29 30 32 33 34 35 37 38 39 41 43 44 46 48 49 51 52 54 55 56 56
10 10 12 12 11 12 15 15 14 14 14 13 11 10 9 9 10 11 10 9 7 6 5 5 6 8 9 10 11 13 14 16 17 19 20 21 23 24 25 26 28 29 30 31 32 33 34 35 35 36 37 38 39 40 42 43 44 46 47 49 51 53 54
10 10 10 11 11 12 13 14 13 12 11 10 9 9 8 8 7 6 5 3 3 3 4 5 6 8 9 11 12 14 15 16 18 19 20 22 23 24 26 27 28 29 30 31 32 33 34 35 35 36 36 37 38 38 38 39 40 41 43 44 46 48 49
11 10 10 10 11 11 12 12 11 9 8 8 8 7 6 4 3 2 1 1 2 4 5 7 8 9 11 12 14 15 16 17 19 20 21 22 23 24 26 27 28 30 31 32 33 33 34 34 35 36 36 36 37 37 37 36 37 37 38 39 41 42 44
10 10 10 10 10 11 11 9 8 7 6 6 6 4 2 1 1 1 2 3 5 6 7 9 10 12 13 14 15 16 17 18 19 21 22 23 23 25 26 27 29 30 31 32 33 34 34 34 35 35 35 36 35 35 35 35 34 34 34 35 36 37 39
10 10 10 10 9 9 8 7 6 5 5 4 3 2 1 2 2 3 4 6 7 9 10 11 13 13 14 15 16 17 18 19 20 21 22 23 24 25 26 27 28 30 31 32 33 34 34 35 35 35 35 35 34 34 34 33 33 32 32 31 32 33 34
10 10 10 9 8 7 6 5 5 4 3 2 2 1 2 3 4 5 6 8 10 11 12 13 13 14 15 16 17 18 19 20 21 22 23 24 24 25 26 26 28 29 30 31 32 33 34 35 35 35 35 35 34 33 32 31 31 30 30 29 29 29 30
11 11 10 9 8 7 6 5 5 4 2 1 1 2 2 3 5 6 8 10 11 12 12 13 13 14 16 17 18 19 20 21 22 23 24 24 25 25 26 26 27 28 29 30 31 33 34 35 35 35 35 35 35 34 32 31 30 29 28 28 27 27 26
Wind_Direction
270 269 269 267 266 266 265 264 264 263 263 264 264 263 263 262 261 261 260 260 259 259 259 259 258 258 257 257 257 257 257 256 256 256 256 256 257 258 259 260 262 263 264 265 265 265 264 264 263 264 265 266 267 267 266 264 262 260 258 256 253 251 251
269 268 268 268 266 265 264 263 262 261 260 260 261 261 261 261 262 261 260 260 259 259 258 258 258 257 257 256 255 255 255 256 256 256 255 256 256 257 258 259 260 262 263 264 265 264 264 264 264 263 264 265 266 267 267 267 265 263 260 259 257 254 252
270 268 266 266 267 266 265 264 263 262 260 259 258 258 258 258 259 259 260 260 260 259 259 259 259 259 258 257 256 256 255 256 256 256 257 257 257 258 259 259 260 262 263 264 264 264 265 265 264 264 264 264 265 266 266 266 266 265 263 261 260 258 256
273 270 267 264 264 265 265 265 264 263 262 261 259 258 257 257 257 257 257 257 257 257 258 258 259 259 259 259 259 258 258 258 258 258 258 258 259 259 260 260 261 261 262 263 264 265 265 265 265 265 264 264 264 265 266 266 267 266 265 263 261 260 258
275 273 270 266 263 262 263 264 264 264 263 262 261 261 260 259 258 258 257 257 257 256 256 256 257 257 257 258 258 258 258 259 259 259 260 260 260 260 261 261 261 262 262 263 264 265 265 265 265 265 264 264 264 264 265 266 267 267 267 265 263 261 260
276 274 272 269 266 263 261 261 262 262 262 262 263 262 262 261 260 259 258 258 258 258 258 258 258 258 258 258 258 258 258 259 259 259 259 260 260 260 260 260 261 261 262 263 264 264 264 264 264 265 264 264 265 265 265 265 266 267 267 266 265 263 262
277 275 273 271 268 265 262 260 259 260 261 262 262 262 261 261 261 261 260 260 259 259 259 259 260 260 260 260 261 261 261 261 261 261 261 261 261 261 261 261 261 261 262 262 263 263 264 264 264 264 264 264 264 264 263 264 264 265 266 267 267 266 265
277 276 275 272 270 267 265 262 260 258 259 260 261 261 261 261 260 261 261 261 261 260 260 260 260 260 261 261 261 262 262 263 263 263 264 263 263 263 263 263 263 263 263 263 264 264 264 264 264 264 265 265 264 264 264 264 264 264 265 266 267 267 266
278 277 275 274 271 269 267 265 262 260 259 258 259 260 260 261 260 260 260 260 260 261 260 261 261 261 262 262 263 263 263 264 264 264 264 263 264 263 263 263 263 263 263 263 263 263 263 263 263 263 264 264 265 265 266 265 264 264 264 265 266 266 266
279 277 276 274 273 271 269 266 264 262 261 259 259 258 259 260 260 260 260 260 260 261 261 262 263 264 265 265 264 264 264 263 263 263 263 263 264 264 264 264 264 264 264 264 263 263 263 263 262 262 263 263 264 265 265 264 263 263 263 263 264 265 265
279 278 276 275 274 272 270 268 266 264 262 260 259 257 257 257 258 259 259 260 262 263 265 265 265 265 264 264 264 264 264 264 264 264 264 265 265 265 265 265 265 264 264 264 264 264 263 263 263 262 262 262 262 263 263 264 263 263 263 262 262 263 264
279 277 277 276 275 273 272 270 268 266 263 260 258 257 256 255 256 257 259 261 263 264 264 263 262 262 263 263 264 264 265 265 265 265 265 265 265 265 265 265 265 265 265 265 265 265 265 265 264 263 262 261 262 262 262 263 263 263 263 263 263 263 263
278 277 276 276 275 274 272 270 268 267 265 263 260 259 258 257 256 257 258 258 259 259 259 260 261 262 263 263 264 264 264 264 264 265 265 265 265 265 265 265 265 266 266 266 266 266 265 266 266 266 265 264 263 263 262 262 263 263 263 263 263 263 262
276 275 276 276 275 274 272 270 268 267 265 264 262 261 261 261 260 259 258 256 256 257 257 259 260 261 262 263 263 263 263 263 263 263 264 264 264 265 265 265 265 265 264 264 265 265 265 265 265 266 266 265 265 265 264 264 264 264 264 264 264 263 262
275 274 275 275 275 274 272 270 267 266 265 263 263 262 264 264 263 261 260 259 259 259 259 260 260 261 262 263 264 264 264 264 264 264 264 265 265 265 266 266 266 265 264 264 265 266 267 267 266 266 267 267 267 267 267 267 267 266 266 266 265 264 263
276 275 275 275 274 273 271 269 267 265 264 263 263 263 264 264 264 265 264 263 262 262 263 264 264 264 264 264 265 264 264 265 265 266 266 266 266 266 266 266 265 265 265 266 266 265 266 266 266 266 267 267 267 267 268 267 267 266 266 266 265 265 264
278 276 275 274 272 271 270 268 266 265 264 263 263 264 263 263 264 266 267 267 267 267 267 268 267 267 266 266 266 266 266 266 266 266 267 267 266 267 267 267 266 266 266 265 265 264 264 264 264 264 264 264 264 264 264 265 265 266 267 267 267 267 267
279 276 274 272 270 269 268 267 266 266 265 266 266 265 264 263 264 266 268 271 272 272 271 269 269 268 267 267 268 269 270 270 270 270 269 269 268 268 268 268 267 266 266 267 267 267 266 265 264 263 263 262 261 260 260 261 262 264 265 265 266 268 269
279 276 273 270 268 267 266 266 267 267 267 268 269 268 267 266 267 270 273 275 275 274 273 271 270 271 272 272 273 273 273 273 274 273 273 273 273 272 270 269 268 268 268 268 268 268 267 267 266 265 264 263 262 261 260 259 259 260 261 262 263 264 265
278 275 272 269 267 266 265 266 267 268 269 270 270 270 269 269 273 276 277 276 275 274 274 274 274 276 277 277 277 276 276 276 276 276 276 276 276 275 274 273 272 272 271 270 268 267 267 267 267 267 267 265 264 263 261 259 258 258 258 258 259 259 258
276 273 270 268 266 265 265 266 267 268 269 270 272 272 272 275 282 283 279 276 275 275 276 278 279 281 280 280 279 278 278 278 278 279 279 278 278 278 278 278 276 275 274 273 272 271 269 268 267 266 265 265 264 263 262 260 259 258 257 256 256 257 256
274 271 268 267 265 264 265 266 268 268 269 271 273 275 276 281 287 285 280 278 278 280 282 283 284 285 284 284 283 283 282 282 282 282 282 281 281 281 281 281 280 279 278 276 275 274 272 271 269 267 266 265 264 264 263 263 262 260 259 258 257 258 257
271 269 267 266 265 265 265 266 266 268 271 274 276 278 282 288 289 284 281 282 284 286 288 288 289 289 289 289 289 289 289 288 288 287 286 286 286 285 285 284 284 283 282 281 280 278 276 275 273 270 268 266 264 263 263 262 261 260 259 258 257 256 256
270 268 266 265 266 268 268 268 268 270 274 277 280 283 287 292 292 288 287 288 290 292 293 293 293 294 294 295 294 294 295 294 293 293 292 291 290 289 288 288 286 286 285 284 283 282 280 279 277 275 273 270 268 265 264 262 261 260 259 257 256 255 254
270 268 266 265 266 269 271 271 273 275 277 280 284 287 290 293 292 291 292 293 294 295 296 296 297 297 297 298 298 298 298 298 297 296 295 295 294 292 291 290 289 288 286 285 284 283 282 281 279 278 276 274 272 270 267 265 263 261 259 258 257 256 255
271 270 269 268 270 272 274 275 277 280 282 286 289 289 291 292 291 291 293 294 295 296 296 297 298 299 300 301 301 301 301 301 301 301 301 301 300 299 299 297 295 293 291 289 287 285 283 282 281 279 278 276 275 273 271 268 266 264 262 260 258 257 256
272 271 271 273 276 278 279 280 282 285 288 291 290 289 290 290 289 290 293 295 295 297 298 300 301 302 303 304 305 307 308 310 311 312 313 313 313 313 312 311 309 306 303 300 297 294 290 287 285 282 280 278 277 275 273 271 269 267 264 262 260 258 256
274 274 275 277 282 284 284 286 289 291 293 293 290 288 288 287 287 291 294 295 297 300 302 304 306 309 312 317 321 324 326 327 328 328 328 328 327 326 325 324 323 321 319 316 312 308 303 299 295 291 288 284 281 279 276 274 272 269 267 264 262 259 257
277 279 279 282 286 287 287 290 292 294 297 297 294 289 286 285 288 293 295 297 300 304 306 312 320 327 335 340 341 342 342 342 341 340 339 338 337 335 334 332 331 329 328 326 323 320 315 311 306 301 297 292 288 285 281 278 275 272 269 267 264 262 259
280 281 283 285 287 286 287 290 294 296 298 299 298 297 295 292 291 293 297 302 307 312 322 339 349 351 352 352 351 350 349 348 347 346 345 344 343 342 341 339 337 336 333 331 329 327 324 321 317 311 306 301 296 292 288 284 281 277 273 269 266 263 260
287 285 284 286 288 286 287 291 295 296 296 298 302 305 307 303 298 296 301 310 325 343 357 1 358 354 353 351 350 349 348 346 345 345 345 344 344 344 345 344 343 342 340 337 334 332 329 327 324 320 315 310 305 300 295 291 287 283 279 274 270 266 262
292 291 288 288 288 287 287 290 292 292 293 298 303 308 311 309 303 302 323 354 5 3 359 355 351 349 348 348 347 346 345 344 343 343 343 343 344 344 344 345 346 346 345 343 340 337 334 332 329 326 322 317 313 308 303 298 294 289 285 280 275 271 266
291 292 292 289 286 285 284 284 284 284 289 298 306 314 326 341 14 28 21 10 2 354 349 347 346 346 347 346 345 344 344 343 342 342 342 342 342 343 344 345 346 347 347 347 345 343 340 337 334 331 328 324 319 314 309 305 301 296 291 285 280 275 270
295 295 293 288 285 284 278 273 271 275 287 304 320 343 22 42 31 18 8 359 351 347 345 346 346 346 346 345 344 343 343 342 341 340 340 340 341 342 343 344 345 346 347 348 348 346 344 341 338 336 333 330 325 320 315 311 307 302 297 291 286 280 273
299 299 297 294 292 285 271 259 259 267 285 320 0 34 44 34 15 1 353 348 345 344 345 345 345 344 343 343 342 342 341 340 339 338 338 338 339 339 340 341 343 345 346 348 349 349 348 346 343 341 338 335 332 327 322 317 313 308 303 297 291 285 279
306 305 304 302 297 284 264 253 251 253 268 321 32 48 35 14 355 347 344 342 341 342 342 343 342 342 342 341 341 341 340 340 340 339 338 338 338 338 339 340 341 343 344 346 349 350 350 349 348 345 343 341 338 334 329 325 320 315 310 304 298 292 286
Height
2937 2937 2937 2937 2937 2938 2938 2938 2939 2939 2939 2939 2940 2940 2940 2941 2941 2942 2943 2943 2944 2945 2945 2946 2947 2947 2948 2949 2949 2950 2951 2952 2953 2954 2955 2956 2957 2957 2958 2959 2958 2957 2958 2960 2962 2965 2965 2967 2969 2968 2968 2969 2969 2970 2972 2974 2977 2978 2979 2981 2983 2984 2985
2929 2929 2929 2929 2930 2930 2931 2931 2932 2932 2932 2933 2933 2934 2934 2934 2935 2936 2936 2937 2938 2938 2939 2939 2940 2941 2942 2942 2943 2944 2944 2945 2946 2947 2948 2950 2950 2951 2952 2953 2952 2952 2952 2953 2955 2957 2958 2960 2961 2962 2963 2963 2963 2963 2964 2965 2968 2970 2972 2973 2975 2977 2978
2921 2921 2921 2922 2922 2922 2923 2923 2924 2924 2925 2926 2926 2927 2927 2928 2928 2929 2930 2931 2931 2932 2932 2933 2934 2934 2935 2936 2937 2938 2938 2938 2939 2940 2941 2943 2944 2945 2946 2946 2946 2946 2946 2947 2948 2950 2951 2952 2953 2955 2957 2957 2957 2957 2957 2957 2959 2961 2963 2966 2967 2969 2971
2913 2913 2914 2914 2914 2914 2914 2915 2916 2916 2917 2918 2919 2919 2920 2921 2922 2922 2923 2924 2924 2925 2926 2926 2927 2928 2928 2929 2930 2930 2931 2931 2932 2933 2934 2936 2937 2938 2939 2939 2939 2939 2940 2941 2941 2943 2945 2944 2945 2947 2949 2950 2950 2950 2950 2950 2951 2952 2954 2957 2959 2961 2963
2906 2906 2906 2906 2906 2907 2907 2907 2908 2908 2909 2909 2910 2912 2913 2914 2915 2915 2916 2916 2917 2917 2918 2919 2920 2920 2921 2921 2922 2923 2923 2923 2924 2926 2927 2928 2930 2930 2931 2931 2931 2932 2933 2933 2934 2937 2938 2937 2937 2938 2940 2942 2942 2942 2942 2942 2942 2943 2945 2947 2950 2952 2955
2899 2899 2898 2899 2899 2899 2899 2900 2900 2900 2901 2902 2903 2904 2905 2906 2907 2907 2908 2909 2909 2910 2910 2911 2912 2912 2913 2914 2914 2915 2915 2915 2916 2918 2919 2920 2922 2923 2923 2923 2924 2924 2925 2925 2926 2928 2929 2930 2930 2930 2931 2933 2934 2933 2934 2935 2934 2934 2934 2935 2939 2942 2946
2892 2892 2892 2891 2891 2891 2892 2893 2893 2893 2894 2895 2896 2896 2897 2898 2899 2899 2900 2901 2902 2903 2903 2904 2904 2905 2906 2907 2907 2907 2908 2908 2909 2910 2912 2913 2914 2915 2915 2915 2916 2917 2917 2917 2918 2920 2921 2922 2922 2922 2923 2925 2925 2924 2925 2927 2927 2926 2925 2925 2928 2932 2936
2886 2885 2885 2884 2884 2884 2885 2885 2886 2887 2888 2888 2888 2889 2890 2890 2891 2892 2893 2894 2894 2895 2896 2897 2897 2898 2898 2899 2900 2900 2901 2901 2902 2903 2904 2905 2906 2907 2907 2907 2908 2909 2909 2909 2910 2912 2914 2914 2914 2914 2915 2916 2915 2914 2916 2920 2919 2917 2918 2919 2918 2920 2924
2879 2879 2878 2878 2877 2878 2878 2878 2879 2880 2880 2881 2881 2882 2882 2883 2884 2885 2885 2886 2887 2888 2888 2889 2890 2890 2891 2892 2893 2894 2894 2894 2895 2896 2897 2898 2898 2899 2899 2900 2900 2901 2902 2902 2902 2903 2906 2906 2906 2907 2908 2907 2906 2906 2908 2911 2910 2908 2910 2912 2909 2909 2912
2873 2872 2872 2871 2871 2871 2871 2872 2872 2873 2874 2874 2875 2875 2876 2876 2877 2877 2878 2879 2880 2880 2881 2883 2883 2884 2885 2885 2885 2886 2887 2887 2887 2888 2888 2890 2890 2891 2892 2892 2893 2893 2894 2894 2894 2895 2897 2896 2897 2900 2901 2899 2899 2900 2899 2901 2901 2900 2902 2903 2900 2900 2903
2866 2866 2866 2865 2865 2865 2865 2866 2866 2867 2867 2868 2868 2869 2869 2870 2870 2870 2871 2872 2873 2874 2875 2876 2876 2877 2877 2877 2877 2878 2878 2879 2880 2880 2881 2882 2883 2883 2884 2884 2884 2885 2885 2885 2885 2886 2888 2888 2889 2892 2893 2891 2892 2892 2890 2891 2891 2891 2892 2893 2892 2892 2895
2860 2860 2860 2860 2859 2859 2860 2860 2860 2861 2861 2862 2862 2862 2863 2864 2865 2865 2866 2867 2867 2868 2868 2868 2869 2869 2869 2870 2871 2871 2871 2872 2872 2873 2874 2875 2875 2876 2876 2876 2876 2877 2877 2877 2877 2877 2879 2879 2880 2883 2885 2884 2884 2884 2882 2882 2882 2882 2883 2883 2883 2883 2887
2854 2854 2854 2854 2854 2854 2854 2854 2854 2855 2855 2856 2856 2856 2856 2858 2859 2860 2861 2862 2861 2861 2861 2861 2862 2863 2863 2864 2864 2864 2865 2865 2866 2866 2867 2867 2868 2869 2869 2869 2869 2869 2869 2869 2869 2869 2871 2872 2872 2872 2875 2877 2875 2874 2874 2873 2873 2874 2873 2873 2873 2875 2878
2849 2849 2848 2848 2848 2848 2849 2849 2849 2849 2849 2850 2850 2850 2850 2852 2854 2854 2855 2855 2855 2855 2855 2856 2857 2857 2858 2858 2858 2858 2859 2859 2859 2859 2860 2860 2861 2862 2862 2863 2863 2863 2862 2862 2862 2862 2863 2865 2865 2864 2866 2868 2866 2865 2865 2865 2864 2864 2864 2864 2864 2866 2868
2844 2844 2844 2843 2843 2843 2843 2843 2844 2844 2844 2845 2844 2845 2846 2847 2847 2847 2848 2849 2849 2849 2849 2850 2851 2851 2852 2852 2852 2852 2852 2852 2852 2853 2853 2854 2855 2855 2856 2856 2856 2855 2855 2855 2855 2855 2855 2857 2857 2857 2858 2859 2859 2857 2857 2857 2856 2856 2856 2855 2855 2856 2857
2839 2839 2839 2838 2838 2838 2838 2838 2839 2839 2839 2839 2839 2840 2842 2842 2842 2842 2842 2843 2843 2843 2844 2845 2845 2846 2847 2847 2846 2846 2846 2845 2846 2846 2847 2848 2849 2849 2849 2849 2849 2848 2848 2849 2849 2849 2849 2849 2849 2849 2850 2851 2851 2850 2850 2849 2847 2847 2847 2846 2845 2845 2847
2834 2834 2834 2834 2834 2834 2833 2833 2834 2834 2834 2834 2835 2836 2837 2838 2837 2837 2837 2837 2838 2839 2839 2840 2840 2840 2841 2841 2840 2840 2840 2840 2840 2841 2841 2841 2842 2843 2843 2843 2842 2842 2842 2842 2841 2841 2842 2842 2842 2842 2842 2843 2843 2843 2842 2840 2838 2839 2840 2838 2836 2836 2838
2830 2830 2830 2830 2829 2829 2829 2829 2829 2830 2830 2830 2830 2831 2832 2833 2833 2833 2834 2834 2834 2834 2835 2835 2835 2835 2835 2835 2835 2835 2835 2834 2834 2835 2835 2835 2836 2836 2837 2835 2835 2835 2835 2835 2835 2834 2834 2834 2835 2834 2834 2835 2835 2835 2835 2832 2830 2832 2832 2830 2829 2828 2829
2826 2826 2826 2826 2826 2826 2826 2826 2826 2826 2826 2827 2827 2826 2827 2829 2830 2830 2830 2830 2830 2829 2830 2830 2829 2830 2830 2830 2830 2830 2829 2829 2828 2828 2828 2829 2828 2828 2828 2828 2828 2828 2828 2828 2828 2827 2827 2826 2826 2826 2826 2827 2827 2826 2827 2825 2823 2824 2824 2822 2821 2822 2821
2822 2822 2822 2822 2822 2822 2822 2822 2822 2823 2823 2823 2823 2822 2822 2825 2826 2827 2826 2826 2825 2825 2824 2824 2825 2825 2825 2825 2825 2824 2824 2823 2822 2822 2822 2822 2820 2819 2819 2820 2820 2820 2820 2819 2819 2820 2819 2819 2819 2818 2818 2818 2818 2817 2817 2816 2815 2815 2814 2813 2812 2813 2813
2819 2819 2819 2819 2819 2819 2819 2819 2819 2820 2820 2820 2820 2818 2818 2821 2823 2823 2822 2821 2820 2820 2820 2820 2820 2820 2820 2820 2819 2818 2818 2817 2816 2816 2816 2814 2813 2812 2811 2811 2812 2811 2811 2810 2810 2810 2811 2811 2811 2810 2809 2809 2808 2807 2807 2806 2806 2806 2806 2804 2803 2803 2803
2816 2816 2816 2816 2816 2816 2816 2817 2817 2817 2817 2818 2817 2815 2815 2818 2819 2818 2817 2816 2816 2816 2816 2816 2815 2815 2815 2814 2813 2812 2812 2811 2810 2810 2809 2808 2806 2805 2804 2803 2803 2802 2802 2801 2801 2800 2800 2800 2801 2801 2801 2800 2800 2799 2798 2798 2798 2798 2798 2797 2796 2796 2795
2813 2814 2814 2813 2813 2813 2814 2814 2814 2814 2815 2815 2814 2812 2812 2814 2815 2814 2813 2812 2812 2812 2812 2811 2810 2810 2809 2808 2807 2807 2806 2805 2804 2803 2802 2801 2800 2799 2797 2796 2795 2794 2793 2792 2791 2790 2790 2790 2789 2790 2790 2790 2790 2789 2789 2788 2788 2788 2788 2788 2787 2787 2786
2811 2811 2811 2811 2810 2810 2811 2811 2811 2812 2812 2812 2812 2810 2809 2810 2810 2809 2808 2808 2807 2807 2807 2806 2805 2805 2804 2803 2802 2801 2800 2800 2799 2797 2796 2795 2794 2793 2792 2790 2788 2787 2785 2784 2782 2781 2780 2779 2779 2778 2778 2778 2778 2778 2778 2778 2778 2778 2778 2777 2776 2776 2777
2808 2808 2808 2808 2808 2808 2809 2808 2808 2809 2810 2810 2809 2808 2807 2807 2806 2805 2805 2804 2804 2803 2802 2802 2801 2800 2800 2799 2798 2797 2796 2795 2794 2793 2791 2790 2789 2787 2786 2784 2782 2781 2779 2777 2775 2773 2772 2770 2769 2768 2767 2767 2767 2767 2766 2766 2766 2766 2766 2766 2766 2766 2768
2806 2806 2806 2805 2806 2806 2806 2806 2806 2806 2807 2807 2807 2806 2805 2804 2802 2802 2802 2801 2800 2800 2799 2798 2798 2797 2796 2795 2794 2793 2792 2791 2790 2789 2787 2785 2784 2782 2780 2778 2776 2775 2773 2771 2769 2767 2764 2762 2761 2759 2758 2756 2756 2756 2755 2754 2754 2754 2755 2755 2755 2756 2758
2804 2804 2803 2803 2803 2803 2803 2803 2803 2803 2804 2805 2804 2803 2802 2801 2799 2799 2799 2798 2797 2797 2796 2795 2795 2794 2793 2792 2791 2790 2789 2788 2787 2785 2783 2782 2780 2778 2776 2774 2771 2769 2767 2764 2762 2760 2757 2755 2753 2751 2749 2747 2746 2745 2744 2743 2742 2742 2743 2743 2743 2744 2746
2802 2801 2801 2801 2801 2801 2800 2800 2800 2800 2801 2802 2801 2800 2800 2798 2797 2796 2796 2795 2794 2794 2793 2792 2792 2791 2790 2789 2788 2787 2786 2785 2783 2782 2780 2779 2777 2775 2773 2770 2767 2765 2762 2759 2757 2754 2751 2749 2746 2744 2742 2739 2738 2736 2735 2733 2732 2731 2731 2731 2731 2732 2734
2800 2800 2799 2799 2799 2798 2797 2797 2798 2797 2797 2798 2798 2798 2797 2796 2795 2794 2793 2793 2792 2792 2791 2790 2790 2789 2788 2787 2786 2785 2783 2782 2780 2779 2777 2775 2773 2771 2769 2766 2764 2761 2758 2755 2752 2749 2746 2744 2741 2738 2735 2732 2730 2728 2726 2724 2723 2722 2721 2721 2720 2721 2722
2798 2798 2797 2797 2797 2797 2795 2795 2795 2795 2794 2794 2795 2795 2794 2794 2793 2792 2791 2791 2791 2790 2790 2789 2788 2787 2787 2786 2784 2783 2782 2780 2778 2777 2774 2772 2770 2768 2766 2763 2760 2757 2754 2751 2748 2745 2742 2738 2735 2732 2729 2726 2723 2721 2719 2717 2715 2713 2712 2711 2710 2710 2712
2796 2796 2796 2795 2795 2794 2794 2793 2793 2793 2793 2792 2792 2792 2792 2791 2791 2790 2790 2790 2790 2789 2789 2788 2787 2787 2786 2784 2783 2782 2780 2778 2777 2775 2773 2770 2768 2765 2763 2760 2757 2754 2751 2748 2745 2741 2738 2734 2731 2727 2723 2720 2717 2714 2712 2710 2707 2705 2704 2702 2701 2701 2702
2794 2794 2794 2793 2793 2792 2792 2792 2792 2791 2791 2791 2791 2791 2790 2790 2790 2790 2790 2789 2789 2788 2788 2787 2786 2785 2784 2782 2781 2780 2778 2776 2774 2772 2770 2768 2766 2763 2761 2758 2755 2752 2748 2745 2742 2738 2734 2731 2727 2723 2719 2715 2711 2708 2705 2703 2700 2698 2696 2695 2694 2693 2693
2793 2793 2792 2792 2791 2791 2790 2790 2790 2790 2790 2790 2790 2789 2789 2789 2789 2789 2788 2788 2787 2787 2786 2785 2784 2783 2782 2780 2779 2777 2776 2774 2772 2770 2768 2765 2763 2761 2758 2755 2752 2749 2746 2742 2739 2735 2731 2727 2723 2719 2715 2711 2707 2703 2699 2696 2694 2691 2689 2688 2686 2686 2685
2791 2791 2790 2790 2790 2789 2789 2789 2789 2789 2789 2789 2788 2788 2788 2788 2787 2787 2787 2786 2786 2785 2784 2783 2782 2781 2780 2778 2777 2775 2774 2772 2770 2768 2765 2763 2760 2758 2755 2752 2750 2747 2743 2740 2736 2732 2728 2724 2720 2716 2712 2707 2703 2699 2695 2691 2688 2685 2683 2681 2680 2679 2678
2789 2788 2788 2788 2787 2787 2787 2787 2787 2787 2787 2787 2787 2787 2786 2786 2786 2786 2785 2785 2784 2783 2782 2781 2780 2779 2778 2777 2775 2774 2772 2770 2768 2765 2763 2760 2758 2755 2753 2750 2747 2744 2741 2738 2734 2730 2726 2722 2717 2713 2708 2704 2699 2695 2691 2687 2684 2680 2678 2676 2674 2673 2672
2786 2786 2785 2785 2785 2785 2785 2785 2786 2786 2786 2786 2786 2785 2785 2785 2785 2785 2784 2784 2783 2782 2781 2780 2779 2778 2777 2775 2774 2772 2770 2768 2765 2763 2760 2758 2755 2753 2750 2747 2745 2742 2739 2735 2731 2728 2724 2719 2715 2710 2706 2701 2696 2691 2687 2683 2680 2676 2673 2671 2669 2667 2666